Home > Weather > Canvey Island > Past weeks

Flag for United Kingdom Past Weather in Canvey Island, England, United Kingdom — Yesterday and Last 2 Weeks

Now
54 °F

Clear.


Feels Like: 52 °F
Forecast: 52 / 67 °F
Wind: 6 mph from West

Location: Southend Airport-On-Sea

Current Time: Jun 26, 2016 at 3:46:15 AM

Latest Report: Jun 26, 2016 at 1:50 AM


Visibility: 10 mi

Pressure: 30.01 "Hg

Humidity: 88%

Dew Point: 50 °F

Location of Canvey IslandLocation

Past Weather in Canvey Island — Graph

°F

Canvey Island Temperature Yesterday

Maximum temperature yesterday: 68 °F (at 12:50 PM)
Minimum temperature yesterday: 50 °F (at 4:50 AM)
Average temperature yesterday: 60 °F

High & Low Weather Summary for the Past Weeks

 TemperatureHumidityPressure
High73 °F (Jun 20, 6:50 PM)100% (Jun 23, 5:20 AM)30.24 "Hg (Jun 23, 5:20 AM)
Low50 °F (Jun 18, 11:50 PM)46% (Jun 19, 2:50 PM)29.39 "Hg (Jun 14, 2:20 PM)
Average62 °F78%29.84 "Hg
* Reported Jun 11 2:50 AM — Jun 26 1:50 AM, Canvey Island, Weather by CustomWeather, © 2016

Note: Actual official high and low records may vary slightly from our data, if they occured in-between our weather recording intervals... More about our weather records

Advertising

Canvey Island Weather History for the Previous 24 Hours

Scroll right to see more
 ConditionsComfort  
Time TempWeatherWind HumidityBarometerVisibility
1:50 AM
Sun, Jun 26
54 °FClear.6 mph88%30.01 "Hg10 mi
12:20 AM55 °FClear.8 mph82%30.01 "Hg10 mi
11:50 PM
Sat, Jun 25
55 °FClear.8 mph82%30.01 "Hg10 mi
11:20 PM55 °FClear.10 mph82%30.01 "Hg10 mi
10:50 PM55 °FClear.8 mph88%30.01 "Hg10 mi
10:20 PM55 °FClear.7 mph82%30.01 "Hg10 mi
9:50 PM57 °FSunny.7 mph77%30.01 "Hg10 mi
9:20 PM59 °FPassing clouds.7 mph77%30.01 "HgN/A
8:50 PM57 °FScattered showers. Passing clouds.7 mph77%30.01 "HgN/A
8:20 PM59 °FScattered showers. Passing clouds.5 mph77%30.01 "HgN/A
7:50 PM61 °FPassing clouds.6 mph77%30.01 "HgN/A
7:20 PM59 °FPassing clouds.7 mph77%30.01 "HgN/A
6:50 PM61 °FSprinkles. Passing clouds.9 mph63%30.01 "HgN/A
6:20 PM63 °FScattered showers. Passing clouds.6 mph68%29.98 "HgN/A
5:50 PM63 °FScattered showers. Passing clouds.5 mph68%30.01 "HgN/A
5:20 PM63 °FScattered showers. Passing clouds.7 mph68%30.01 "HgN/A
4:50 PM64 °FPassing clouds.13 mph64%30.01 "HgN/A
4:20 PM61 °FPassing clouds.15 mph63%30.01 "HgN/A
3:50 PM63 °FScattered showers. Passing clouds.16 mph59%30.01 "HgN/A
3:20 PM63 °FThundershowers. Passing clouds.3 mph68%30.01 "HgN/A
2:50 PM63 °FThundershowers. Passing clouds.9 mph73%30.01 "HgN/A
2:20 PM64 °FScattered showers. Passing clouds.8 mph68%29.98 "HgN/A
1:50 PM66 °FScattered showers. Scattered clouds.8 mph56%29.98 "HgN/A
1:20 PM66 °FScattered showers. Scattered clouds.8 mph49%29.98 "HgN/A
12:50 PM68 °FScattered clouds.10 mph53%29.98 "HgN/A
12:20 PM66 °FPassing clouds.9 mph52%29.98 "HgN/A
11:50 AM64 °FPassing clouds.7 mph60%30.01 "HgN/A
11:20 AM63 °FPassing clouds.7 mph59%30.01 "HgN/A
10:50 AM64 °FPassing clouds.6 mph60%30.01 "HgN/A
10:20 AM64 °FPassing clouds.6 mph64%30.01 "HgN/A
9:50 AM63 °FPassing clouds.7 mph64%30.01 "HgN/A
9:20 AM63 °FPassing clouds.6 mph73%30.01 "HgN/A
8:50 AM61 °FPassing clouds.8 mph72%30.01 "HgN/A
8:20 AM59 °FPassing clouds.10 mph72%30.01 "HgN/A
7:50 AM57 °FPassing clouds.9 mph77%30.01 "HgN/A
7:20 AM59 °FPassing clouds.9 mph77%30.04 "HgN/A
6:50 AM57 °FPassing clouds.7 mph82%30.01 "HgN/A
6:20 AM55 °FSunny.5 mph82%30.01 "Hg10 mi
5:50 AM55 °FSunny.6 mph82%30.01 "Hg10 mi
5:20 AM54 °FClear.5 mph88%30.01 "Hg10 mi
4:50 AM50 °FClear.3 mph94%30.01 "Hg10 mi
3:50 AM54 °FClear.3 mph88%30.01 "Hg10 mi
Weather by CustomWeather, © 2016

See weather overviewHow to use our weather pages